Погода в Озёрном

Россия / Республика Мордовия     54°24′29″N   42°41′44″E
темп.,
°C
ветер,
м/с
пор.,
м/с
влажн.,
%
обл.,
%
осадки,
мм/ч
давл.,
гПа
погр.,
м
16 мая, вс
вс1600:00+16ююз229589 0.0 101319
03:00+15юз22940 0.0 101417
06:00+16зюз11898 0.0 101455
09:00+21зюз12650 0.0 1015501
12:00+24зюз244612 0.0 10151495
15:00+25з34454 0.0 10141659
18:00+23зсз126624 0.0 1014197
21:00+16ююв018796 0.3 101511
17 мая, пн
пн1700:00+15всв228999 0.8 101516
03:00+15в2393100 0.8 101650
06:00+16в269128 0.0 1016149
09:00+22вюв34635 0.0 1016514
12:00+28ююв364061 0.0 10151108
15:00+27ююв4738100 0.0 10151435
18:00+23юв3862100 0.0 1015245
21:00+18вюв3978100 0.0 1015145
18 мая, вт
вт1800:00+17юв31071100 0.0 1015148
03:00+15вюв31072100 0.0 1015154
06:00+17вюв3106792 0.0 1015206
09:00+23юв41149100 0.0 1014494
12:00+26юв5840100 0.0 1014954
15:00+28юв4739100 0.0 10131103
18:00+25юв4115335 0.0 1013842
21:00+21вюв515635 0.0 1013390
19 мая, ср
ср1900:00+20вюв515535 0.0 1012316
03:00+18вюв517560 0.0 1012420
06:00+19вюв5165496 0.0 1011438
09:00+24вюв615465 0.0 1010649
12:00+28вюв714395 0.0 10091960
15:00+29юв6134331 0.0 10092972
18:00+24ю61159100 0.4 10061529
21:00+15юв269264 1.7 1009106
20 мая, чт
чт2000:00+15юв4995100 1.6 1009265
03:00+14юв2898100 2.8 1009342
06:00+14ююв4109417 0.0 1009609
09:00+17ююв696733 0.1 10091291
12:00+16ю71067100 1.1 10101220
15:00+17ю61068100 1.4 10101528
18:00+14ююз5108564 0.9 1011966
21:00+12ююз51187100 1.1 1012944